Wind_Speed
24 24 25 25 26 26 24 22 21 21 22 22 23 23 21 20 20 20 19 19 19 18 18 17 16 16 16 15 14 14 15 15 15 14 13 13 13 13 13 13 13 14 14 14 14 14 13 13 14
25 26 27 27 28 27 24 22 22 22 23 24 24 24 23 21 21 21 20 20 19 19 19 18 17 17 16 15 15 15 15 15 16 16 15 15 14 14 14 14 15 15 15 16 16 16 15 15 15
27 28 29 29 29 27 25 24 24 25 25 25 25 25 25 23 22 22 22 21 20 20 19 19 18 18 17 17 16 16 16 16 16 17 17 17 16 16 16 16 16 17 17 18 18 18 17 17 16
28 29 30 31 29 27 26 26 27 27 27 26 27 27 26 24 24 24 23 23 22 21 21 20 20 20 19 18 18 17 17 17 17 17 18 18 18 18 18 18 18 18 18 19 19 19 19 19 18
29 30 31 31 29 28 28 29 29 29 28 28 28 28 27 26 26 25 24 23 23 23 22 22 22 21 21 20 20 19 19 19 19 19 19 18 19 19 19 19 19 19 20 20 20 20 19 19 19
31 31 32 31 29 29 30 30 31 31 30 29 29 29 28 28 27 27 26 25 24 24 24 24 23 23 23 22 21 21 21 21 21 21 20 20 19 19 20 21 21 21 21 21 21 21 21 20 20
32 32 32 31 31 30 31 31 32 32 32 31 31 31 30 29 29 29 28 27 26 25 26 25 25 24 24 23 23 23 23 23 23 22 22 21 21 21 21 21 22 23 23 23 23 23 22 22 22
33 33 32 31 31 31 31 32 33 33 33 33 33 32 31 30 31 30 30 29 28 27 27 26 26 26 26 25 25 24 24 24 24 24 24 23 23 23 23 23 23 24 24 24 24 24 24 24 23
34 34 33 31 31 32 32 33 33 34 34 34 33 33 32 32 32 31 31 30 30 29 29 28 28 28 27 27 27 26 26 26 25 25 25 25 24 24 24 24 24 24 24 25 24 24 25 25 24
34 34 32 32 32 33 33 34 34 34 34 35 35 34 33 33 32 32 31 31 31 31 30 30 30 29 29 29 28 28 28 27 27 27 26 26 25 25 25 25 25 25 25 24 25 25 25 25 25
34 33 32 33 33 34 34 34 35 36 35 36 35 35 34 34 34 33 33 32 32 32 32 31 31 31 31 30 30 29 29 29 28 28 27 27 26 26 25 25 25 25 25 24 25 25 25 25 26
34 33 33 34 34 35 35 35 35 36 36 36 36 36 36 36 35 35 34 34 34 33 33 33 32 32 32 31 31 32 31 30 29 29 29 28 28 27 27 26 26 26 26 25 25 26 25 26 26
34 33 34 34 35 35 35 35 35 35 37 37 37 37 37 37 37 37 36 36 35 35 34 34 34 33 33 33 33 33 33 32 31 31 30 30 29 29 28 28 28 28 28 27 27 27 27 27 27
34 34 34 34 35 36 36 36 36 35 37 38 38 38 38 38 38 38 38 37 37 37 36 36 35 35 35 35 35 35 35 35 33 33 32 31 31 30 30 30 30 30 30 29 28 28 28 28 28
34 34 34 35 36 36 37 37 36 36 38 39 39 39 39 39 39 38 38 38 38 38 38 38 37 36 36 36 37 36 36 36 35 34 34 33 32 32 31 31 31 31 31 31 31 30 30 29 30
33 34 35 35 36 37 38 37 35 37 39 38 39 40 40 40 40 40 40 39 38 39 39 39 39 38 38 38 38 38 38 37 38 36 36 35 34 33 33 32 32 32 32 32 32 31 31 31 31
32 33 33 34 35 36 38 37 36 38 39 39 39 40 41 41 41 41 41 41 40 40 40 41 41 40 40 40 40 40 39 38 39 38 37 37 35 34 34 33 33 33 33 33 33 33 32 33 32
32 32 32 33 34 35 36 37 37 38 39 40 40 40 42 42 41 42 42 42 42 41 42 43 43 43 42 42 42 42 41 40 40 40 38 38 37 35 35 34 34 34 34 34 34 34 34 33 34
33 33 33 33 34 34 35 35 35 37 39 40 41 41 41 42 42 42 42 43 43 43 44 44 44 44 43 43 43 43 42 42 42 41 40 39 37 36 35 34 35 35 35 34 34 34 34 34 34
32 33 33 34 34 35 35 35 35 36 38 39 41 40 40 41 42 43 43 43 43 43 44 44 44 44 44 43 43 43 43 42 43 43 42 41 39 38 37 36 36 35 35 36 36 35 35 35 34
33 33 33 35 35 36 37 36 34 34 35 36 38 39 39 39 40 41 41 42 42 42 43 43 43 43 44 44 44 44 44 43 44 43 43 42 41 40 39 38 37 37 37 37 37 37 37 36 36
32 33 34 35 36 35 35 36 32 33 34 34 34 36 38 38 38 39 40 40 41 41 42 42 42 42 43 44 44 44 44 43 43 43 43 43 42 41 40 40 40 40 39 39 39 39 39 38 38
32 33 33 34 34 35 34 36 33 32 32 32 33 34 35 36 37 38 39 40 40 40 40 41 41 40 40 41 42 42 42 42 42 42 42 43 43 42 41 41 41 40 40 40 40 40 40 40 39
32 33 33 33 34 35 33 35 33 31 31 31 33 34 34 35 37 38 38 39 40 39 38 39 40 39 39 39 40 41 41 42 42 42 42 43 43 42 42 42 42 41 41 40 39 39 39 39 40
31 31 32 33 34 34 33 34 33 31 30 30 32 33 34 34 35 36 36 37 38 38 38 37 38 38 38 39 39 40 41 42 42 42 43 43 43 42 42 41 41 42 41 41 41 40 40 39 40
29 30 30 32 33 32 32 33 31 31 30 30 31 32 33 33 34 35 35 35 36 36 36 37 37 37 36 37 38 39 39 40 41 41 42 43 43 43 43 42 41 41 41 41 41 41 41 41 40
28 28 29 31 32 31 31 32 30 30 30 30 30 31 32 32 33 33 33 33 34 35 35 36 37 36 35 36 37 37 38 39 39 40 41 43 43 42 42 42 41 41 41 41 41 41 41 41 40
28 27 28 29 31 31 31 30 29 27 27 28 29 30 31 32 32 32 32 33 34 34 35 35 36 36 35 35 35 36 36 37 38 39 40 40 41 41 41 41 41 42 42 42 41 41 41 40 40
27 27 27 29 30 31 31 30 28 27 27 28 28 29 29 30 31 31 32 33 33 34 34 35 36 35 34 34 33 34 35 35 36 37 38 39 40 40 40 39 40 41 41 41 41 41 41 41 40
28 28 28 29 30 31 32 30 27 28 29 29 28 29 29 30 31 32 33 33 33 33 34 35 35 35 34 34 34 33 34 35 35 36 37 38 38 38 37 37 38 39 39 39 40 40 40 40 40
Wind_Direction
259 257 256 255 255 255 255 254 252 250 248 248 247 246 245 245 245 245 243 242 242 244 244 245 247 246 245 248 250 248 248 249 249 250 251 252 254 258 263 266 269 270 271 272 270 267 265 265 266
259 257 256 256 256 257 256 255 253 250 247 247 247 246 245 245 245 246 245 243 242 242 244 245 246 246 247 248 249 249 250 251 251 252 252 253 255 258 262 264 266 268 270 271 270 268 265 266 267
259 258 257 257 257 258 257 253 251 249 247 246 247 247 246 246 246 247 247 246 244 243 243 244 246 247 247 248 249 250 250 251 253 253 253 255 256 259 261 263 266 268 269 269 268 266 265 265 267
260 259 258 258 258 257 256 254 252 250 248 247 247 247 247 247 247 249 249 248 246 244 244 244 246 247 248 249 249 250 250 252 254 255 255 257 258 259 260 262 265 268 269 268 266 265 264 264 265
261 259 258 259 258 256 254 253 252 251 251 250 248 247 246 246 247 248 249 248 248 247 246 246 247 247 248 248 250 251 251 252 255 257 258 258 260 260 261 263 265 268 268 267 266 264 263 264 264
261 261 260 260 259 256 254 253 252 250 251 250 249 248 247 247 246 247 248 248 248 248 248 248 249 249 249 250 250 251 252 253 254 257 260 261 262 262 262 263 265 266 268 268 266 264 263 264 264
262 261 261 261 259 256 254 252 251 250 249 249 249 248 247 246 246 246 246 247 248 249 250 250 250 251 251 251 251 251 252 253 255 257 260 262 263 263 265 265 265 266 267 269 267 264 262 262 263
261 261 261 261 260 258 254 252 250 249 249 249 249 249 248 247 246 245 245 247 248 249 250 250 251 252 252 253 253 253 253 253 254 257 259 262 263 264 265 266 267 267 267 267 267 265 262 262 262
260 260 261 261 259 257 254 251 249 249 249 249 249 250 249 247 246 245 245 246 247 248 248 250 250 252 253 254 254 254 255 254 255 256 259 261 263 265 266 266 267 267 267 266 265 265 263 262 262
260 260 261 259 257 256 254 252 250 248 248 248 248 248 248 247 246 245 246 246 247 247 247 249 250 251 252 253 254 254 255 256 256 257 258 260 262 264 265 266 267 267 266 264 264 264 264 263 262
261 260 259 257 257 256 255 253 251 249 248 248 248 247 247 247 246 246 246 246 247 247 248 249 249 250 251 252 252 252 254 255 256 257 258 259 261 262 264 265 266 266 265 264 264 265 264 263 263
261 259 258 256 256 256 255 254 252 251 249 248 248 248 247 247 247 247 247 246 247 248 248 248 249 249 249 250 251 251 253 255 255 256 257 259 260 261 263 265 265 265 264 263 264 264 264 263 263
261 260 258 256 255 255 255 255 253 252 250 249 248 248 247 247 247 247 248 247 246 247 248 249 250 250 250 250 251 252 251 253 255 256 256 258 260 261 262 264 265 264 263 263 263 263 264 265 265
263 261 258 255 255 255 255 255 255 252 250 248 248 248 248 247 247 247 247 248 249 248 248 249 251 252 251 251 251 254 253 252 254 255 255 257 259 261 262 264 265 264 262 262 262 262 264 265 266
263 261 259 257 256 256 255 255 255 253 251 249 249 248 248 247 247 247 247 248 249 249 249 250 251 252 252 252 252 254 255 253 253 254 255 256 258 260 263 264 264 263 262 262 263 262 263 263 265
264 262 261 259 257 257 256 257 255 254 252 250 249 248 248 247 247 247 248 248 249 249 249 249 250 252 252 252 252 254 255 254 253 254 255 256 258 260 262 263 263 263 262 262 263 262 263 263 266
265 265 263 261 260 259 258 257 255 255 252 251 250 248 247 247 248 248 249 249 249 249 249 249 251 253 254 253 252 253 255 255 254 254 255 257 258 260 262 263 262 262 263 263 263 261 263 264 264
269 266 264 264 263 261 259 257 256 255 252 251 250 250 249 248 248 249 250 250 250 250 250 250 251 253 254 253 252 253 255 255 254 254 256 257 258 259 261 261 261 261 263 263 263 262 264 264 264
269 266 265 264 263 261 259 258 256 255 254 253 251 251 250 249 248 249 250 250 250 250 251 251 252 253 253 254 254 254 254 255 254 254 254 256 257 258 260 260 261 261 262 262 262 264 263 263 263
268 267 266 264 262 261 259 258 255 255 256 254 252 251 251 249 249 250 251 251 251 251 251 251 252 253 253 253 255 254 254 254 254 254 253 255 255 256 258 258 259 260 261 261 261 262 262 262 262
268 268 267 266 264 263 262 258 256 257 258 255 253 252 251 251 251 251 251 251 251 252 251 251 251 252 252 253 253 253 253 254 254 253 252 253 253 255 257 257 258 259 260 261 260 260 261 262 262
268 268 269 268 266 263 262 263 258 256 256 255 253 252 252 253 252 251 252 253 252 251 251 250 250 251 252 252 253 253 253 253 253 253 252 252 253 253 256 256 256 258 259 259 259 260 260 261 262
269 268 269 267 265 263 262 264 263 258 255 254 254 254 254 254 253 252 252 253 253 252 252 250 250 249 252 252 252 251 251 251 251 251 252 252 252 253 255 255 256 258 258 259 259 259 259 260 262
271 270 269 266 263 261 261 264 265 260 258 256 255 255 254 255 255 254 254 253 253 252 252 251 250 250 250 251 251 250 251 251 251 250 251 251 252 253 254 255 256 257 257 257 257 258 259 260 261
270 269 268 266 264 264 263 264 266 263 261 260 258 256 255 255 256 256 256 254 252 251 251 252 250 250 250 251 251 250 252 252 251 251 251 251 252 252 253 254 255 256 256 257 258 259 259 260 260
271 268 267 267 267 268 265 265 265 265 265 263 262 259 256 255 255 255 255 254 252 251 251 251 250 249 249 251 252 251 251 252 253 253 252 252 251 252 253 254 255 256 257 257 257 258 259 260 260
271 267 266 265 267 268 266 266 265 265 266 264 264 261 258 256 255 254 252 252 252 252 250 248 248 248 249 250 251 251 252 253 254 254 254 252 252 253 253 254 255 256 257 256 257 258 260 259 260
271 268 266 264 266 269 269 268 269 267 265 263 264 263 259 257 255 253 251 252 251 251 249 247 247 247 248 249 250 251 251 254 255 254 253 253 253 254 255 255 255 255 256 256 258 259 259 259 260
270 267 265 265 267 270 270 270 271 267 265 265 264 263 261 258 255 254 253 252 250 248 248 247 247 245 247 249 250 250 251 254 254 254 255 255 255 255 254 254 255 255 255 256 258 259 259 260 261
270 268 266 266 269 270 272 272 270 267 265 265 264 262 261 258 256 254 253 252 250 249 248 247 246 247 248 249 250 251 254 254 255 255 256 256 255 255 254 255 255 255 256 256 257 258 260 261 262
Height
5798 5799 5800 5801 5802 5803 5805 5809 5811 5812 5813 5813 5814 5816 5818 5820 5822 5826 5825 5826 5827 5828 5830 5831 5832 5834 5835 5836 5837 5839 5840 5841 5842 5843 5844 5845 5846 5847 5848 5849 5850 5850 5851 5852 5852 5853 5854 5854 5855
5793 5794 5795 5796 5796 5798 5802 5805 5806 5808 5808 5809 5810 5812 5814 5816 5817 5819 5820 5822 5823 5825 5826 5828 5829 5830 5832 5833 5834 5836 5837 5838 5839 5840 5841 5842 5843 5844 5845 5846 5847 5847 5848 5849 5849 5850 5851 5851 5852
5788 5789 5790 5790 5791 5795 5798 5800 5801 5802 5803 5804 5806 5807 5810 5812 5814 5815 5817 5818 5820 5821 5823 5824 5825 5827 5828 5830 5831 5832 5834 5835 5836 5837 5838 5839 5840 5841 5842 5843 5844 5844 5845 5846 5846 5847 5848 5848 5849
5782 5783 5784 5785 5787 5790 5792 5794 5795 5796 5797 5799 5801 5803 5806 5808 5810 5811 5812 5814 5816 5817 5819 5820 5822 5823 5825 5826 5828 5829 5830 5831 5832 5834 5835 5836 5836 5837 5838 5839 5840 5840 5841 5842 5842 5843 5844 5845 5845
5775 5776 5777 5779 5782 5785 5787 5788 5788 5790 5792 5794 5796 5798 5800 5803 5804 5806 5808 5810 5812 5813 5815 5816 5818 5819 5821 5822 5824 5825 5826 5827 5829 5830 5831 5832 5832 5833 5834 5835 5836 5836 5837 5838 5838 5839 5840 5841 5841
5769 5769 5771 5772 5776 5778 5780 5781 5782 5784 5786 5788 5790 5792 5795 5797 5799 5801 5803 5805 5807 5809 5810 5812 5813 5815 5816 5818 5819 5821 5822 5823 5824 5826 5826 5827 5828 5829 5830 5830 5831 5832 5832 5833 5834 5834 5835 5836 5837
5762 5762 5763 5766 5768 5770 5773 5774 5775 5777 5779 5781 5783 5785 5789 5791 5793 5795 5797 5800 5802 5804 5806 5807 5809 5810 5812 5813 5815 5816 5817 5819 5820 5821 5822 5823 5824 5825 5825 5826 5826 5827 5828 5828 5829 5830 5831 5832 5833
5754 5755 5756 5758 5760 5762 5764 5765 5768 5769 5772 5774 5776 5779 5783 5785 5786 5789 5792 5794 5796 5798 5800 5802 5804 5805 5807 5808 5810 5811 5812 5813 5815 5816 5817 5818 5819 5820 5820 5821 5821 5822 5823 5823 5824 5825 5826 5827 5828
5746 5748 5749 5751 5752 5754 5755 5757 5760 5762 5764 5767 5769 5772 5775 5777 5779 5782 5785 5788 5790 5792 5794 5796 5798 5800 5801 5803 5804 5805 5807 5808 5809 5811 5812 5813 5814 5814 5815 5816 5816 5817 5817 5818 5819 5819 5820 5821 5822
5737 5739 5742 5743 5744 5745 5747 5749 5751 5754 5757 5759 5762 5764 5767 5770 5773 5775 5778 5781 5783 5786 5788 5790 5792 5794 5795 5797 5798 5800 5801 5802 5804 5805 5806 5807 5808 5809 5810 5810 5811 5811 5812 5813 5813 5814 5815 5816 5817
5728 5731 5733 5734 5735 5736 5738 5740 5742 5745 5749 5751 5754 5757 5759 5762 5765 5768 5771 5773 5776 5778 5781 5783 5785 5787 5789 5790 5792 5793 5794 5796 5797 5799 5800 5801 5802 5803 5804 5805 5805 5806 5806 5807 5808 5809 5810 5811 5812
5720 5722 5724 5725 5726 5728 5729 5732 5734 5736 5741 5743 5746 5749 5751 5754 5757 5760 5763 5766 5768 5771 5773 5775 5777 5779 5781 5783 5785 5786 5788 5789 5790 5792 5794 5795 5796 5797 5798 5799 5799 5800 5801 5801 5802 5803 5804 5805 5806
5712 5714 5715 5716 5717 5719 5721 5722 5725 5728 5731 5734 5736 5740 5743 5746 5749 5752 5754 5757 5760 5763 5765 5768 5770 5772 5774 5776 5777 5779 5781 5782 5783 5785 5787 5788 5790 5791 5792 5792 5793 5794 5794 5795 5796 5797 5798 5799 5801
5704 5705 5706 5707 5708 5710 5712 5714 5716 5720 5721 5724 5727 5730 5734 5737 5740 5742 5745 5748 5751 5754 5757 5759 5761 5763 5765 5768 5769 5771 5773 5775 5776 5778 5780 5781 5783 5784 5785 5785 5786 5787 5788 5789 5790 5791 5792 5793 5794
5695 5696 5698 5699 5700 5701 5702 5705 5708 5710 5711 5714 5717 5721 5724 5727 5730 5733 5736 5739 5742 5745 5748 5750 5752 5754 5756 5759 5761 5763 5765 5767 5769 5770 5772 5774 5775 5776 5777 5778 5779 5780 5781 5782 5783 5785 5786 5787 5788
5687 5687 5689 5691 5691 5691 5693 5695 5699 5699 5701 5704 5708 5711 5714 5717 5720 5724 5727 5730 5733 5735 5738 5741 5743 5745 5748 5750 5752 5754 5756 5758 5760 5762 5764 5766 5767 5769 5770 5770 5771 5772 5773 5775 5776 5778 5779 5780 5781
5679 5679 5680 5682 5682 5682 5683 5686 5689 5690 5691 5694 5698 5700 5703 5707 5711 5714 5717 5720 5723 5726 5728 5731 5733 5736 5738 5741 5743 5745 5747 5750 5752 5754 5756 5757 5759 5760 5761 5762 5763 5764 5766 5767 5769 5770 5772 5773 5774
5671 5672 5672 5673 5673 5673 5674 5676 5679 5680 5681 5684 5687 5690 5693 5697 5701 5703 5706 5709 5712 5715 5718 5721 5723 5726 5729 5731 5733 5735 5738 5740 5742 5745 5747 5749 5750 5752 5753 5754 5756 5757 5758 5760 5761 5763 5764 5765 5767
5662 5663 5664 5665 5664 5664 5665 5667 5669 5670 5672 5674 5677 5680 5683 5686 5690 5692 5695 5698 5701 5704 5707 5710 5713 5716 5718 5721 5723 5726 5729 5731 5733 5736 5738 5740 5742 5743 5745 5746 5747 5749 5751 5752 5754 5755 5756 5758 5759
5654 5655 5655 5656 5655 5655 5656 5658 5660 5661 5663 5665 5667 5669 5673 5676 5679 5682 5684 5687 5690 5693 5696 5699 5702 5705 5708 5711 5713 5716 5719 5721 5724 5726 5729 5731 5732 5734 5736 5737 5739 5741 5743 5744 5746 5747 5748 5750 5751
5647 5647 5647 5647 5647 5646 5647 5649 5652 5653 5654 5655 5657 5660 5662 5665 5668 5671 5674 5676 5679 5682 5685 5687 5691 5694 5696 5699 5702 5705 5708 5711 5713 5716 5719 5721 5723 5725 5727 5728 5730 5732 5734 5736 5737 5738 5740 5741 5743
5639 5639 5638 5638 5638 5638 5639 5639 5644 5645 5646 5647 5649 5651 5653 5656 5658 5661 5663 5666 5668 5671 5674 5676 5679 5682 5685 5688 5691 5694 5698 5701 5703 5706 5708 5711 5713 5715 5717 5719 5721 5723 5725 5726 5728 5729 5731 5732 5734
5631 5630 5630 5629 5629 5629 5631 5630 5635 5637 5638 5640 5641 5643 5645 5647 5649 5651 5653 5656 5658 5660 5663 5665 5668 5671 5674 5677 5680 5683 5687 5690 5692 5695 5697 5700 5703 5705 5707 5708 5710 5712 5714 5716 5718 5719 5721 5723 5724
5622 5622 5621 5621 5621 5622 5624 5623 5626 5629 5631 5633 5634 5635 5636 5638 5639 5641 5643 5646 5648 5650 5653 5655 5658 5661 5664 5667 5670 5673 5676 5679 5681 5684 5687 5690 5692 5695 5696 5698 5700 5702 5704 5706 5707 5709 5711 5713 5714
5615 5615 5613 5612 5613 5615 5617 5616 5619 5622 5623 5624 5625 5626 5627 5629 5630 5632 5634 5637 5639 5641 5644 5646 5649 5652 5655 5658 5660 5663 5666 5668 5671 5673 5676 5679 5682 5684 5686 5688 5690 5691 5693 5695 5697 5699 5701 5703 5704
5607 5607 5607 5606 5606 5608 5608 5609 5614 5614 5615 5616 5617 5617 5618 5619 5622 5624 5626 5628 5630 5633 5635 5638 5640 5643 5646 5648 5651 5653 5656 5658 5661 5663 5666 5668 5671 5673 5675 5677 5679 5682 5683 5685 5687 5689 5691 5693 5694
5600 5599 5601 5600 5599 5599 5600 5603 5606 5607 5607 5608 5608 5609 5610 5612 5613 5615 5617 5619 5622 5624 5626 5629 5631 5634 5637 5639 5642 5644 5646 5648 5651 5653 5655 5658 5660 5662 5664 5666 5669 5671 5673 5675 5677 5679 5681 5683 5684
5593 5593 5593 5592 5591 5592 5594 5596 5599 5600 5600 5600 5600 5601 5602 5604 5605 5607 5609 5611 5613 5616 5618 5620 5623 5626 5628 5630 5632 5635 5637 5639 5641 5643 5645 5648 5650 5652 5654 5656 5659 5661 5662 5664 5667 5669 5671 5673 5674
5587 5587 5586 5585 5585 5586 5586 5592 5593 5592 5592 5593 5593 5593 5594 5596 5597 5599 5601 5603 5605 5607 5609 5612 5614 5617 5619 5621 5623 5626 5628 5630 5632 5634 5636 5638 5640 5642 5644 5646 5648 5651 5653 5654 5657 5659 5661 5663 5664
5579 5580 5580 5580 5580 5579 5579 5586 5586 5585 5585 5585 5586 5586 5587 5588 5590 5591 5593 5595 5597 5599 5601 5603 5606 5608 5611 5613 5615 5617 5619 5621 5623 5624 5626 5628 5630 5632 5635 5637 5639 5641 5643 5645 5647 5649 5651 5653 5655